Regional Weather Roundup
Issued by NWS

Home | Current Version | Previous Version | Graphics & Text | Print | Product List | Glossary On
Versions: 1 2 3 4 5 6 7 8 9 10 11 12 13 14 15 16 17 18 19 20 21 22 23 24 25 26 27 28 29 30 31 32 33 34 35 36 37 38 39 40 41 42 43 44 45 46 47 48 49 50
998
ASUS45 KBOI 121910
RWRID

IDAHO REGIONAL WEATHER ROUNDUP
NATIONAL WEATHER SERVICE BOISE ID
1200 PM MST FRI FEB 12 2016

NOTE: "FAIR" INDICATES FEW OR NO CLOUDS BELOW 12000 FEET
WITH NO SIGNIFICANT WEATHER AND/OR OBSTRUCTIONS TO VISIBILITY

IDZ012-014-122000-
SOUTHWEST IDAHO


CITY           SKY/WX    TMP DP  RH WIND       PRES   REMARKS
BOISE          MOSUNNY   44  32  62 N3        30.32F
CALDWELL       MOSUNNY   42  31  64 CALM      30.35F
MOUNTAIN HOME  SUNNY     44  29  55 SE13      30.32F
$$

IDZ016-017-122000-
SOUTHCENTRAL IDAHO


CITY           SKY/WX    TMP DP  RH WIND       PRES   REMARKS
BURLEY           N/A    N/A N/A N/A MISG      30.31F
JEROME         SUNNY     34  26  72 NE16      30.32S WCI  24
TWIN FALLS     SUNNY     41  33  73 E7        30.32S
$$

IDZ019>023-122000-
SOUTHEAST IDAHO


CITY           SKY/WX    TMP DP  RH WIND       PRES   REMARKS
IDAHO FALLS    CLOUDY    28  23  81 N6        30.36S WCI  22
POCATELLO      CLOUDY    37  27  67 NW5       30.37S WCI  33
REXBURG        CLOUDY    36  26  67 NE3       30.35S
$$

IDZ006-010-011-018-031-032-122000-
CENTRAL IDAHO MOUNTAINS


CITY           SKY/WX    TMP DP  RH WIND       PRES   REMARKS
MCCALL         PTSUNNY   32  30  92 CALM      30.26F
HAILEY         MOSUNNY   41  28  60 CALM      30.34F
STANLEY          N/A     27  22  81 CALM      30.32F
SALMON         CLOUDY    28  25  86 CALM      30.32F
CHALLIS        SUNNY     28  22  78 CALM      30.30F
$$

IDZ002-004-006-007-026-122000-
NORTHERN IDAHO


CITY           SKY/WX    TMP DP  RH WIND       PRES   REMARKS
LEWISTON       CLOUDY    50  37  61 E6        30.20S
LOWELL           N/A     49  42  77 VRB6      30.25F
COEUR D`ALENE  CLOUDY    39  37  93 NE7       30.17R WCI  34
MULLAN PASS    CLOUDY    35  35 100 S7        30.17F FOG     WCI  29
$$




USA.gov is the U.S. government's official web portal to all federal, state and local government web resources and services.